Ann Arbor, MI

2:00 PM EST on February 12, 2016 (GMT -0500)
Ann Arbor Municipal

Weather History for KARB - July, 2013

Change the Weather History Date:

Saturday, July 6, 2013

  Actual Average (KDTW) Record (KDTW)
Temperature  
Mean Temperature 73 °F 74 °F  
Max Temperature 82 °F 84 °F 100 °F (1988)
Min Temperature 64 °F 64 °F 42 °F (1972)
Degree Days  
Heating Degree Days 0 0  
Month to date heating degree days 0  
Since 1 June heating degree days 35  
Since 1 July heating degree days 0  
Cooling Degree Days 8 9  
Month to date cooling degree days 51  
Year to date cooling degree days 266  
Since 1 June cooling degree days 218  
Growing Degree Days 23 (Base 50)    
Moisture  
Dew Point 67 °F    
Average Humidity 91    
Maximum Humidity 100    
Minimum Humidity 65    
Precipitation  
Precipitation 0.20 in 0.10 in 1.12 in (1975)
Month to date precipitation 0.61  
Year to date precipitation 16.67  
Snow  
Snow 0.00 in 0.00 in 0.00 in ()
Month to date snowfall 0.0  
Since 1 June snowfall 0.0  
Since 1 July snowfall 0.0  
Snow Depth -    
Sea Level Pressure  
Sea Level Pressure 30.08 in    
Wind  
Wind Speed 1 mph (South)    
Max Wind Speed 10 mph    
Max Gust Speed 17 mph    
Visibility 5 miles    
Events Fog , Rain    
T = Trace of Precipitation, MM = Missing Value Source: NWS Daily Summary

Daily Weather History Graph

Daily Weather History Graph

Search for Another Location

Airport or City:

Trip Planner

Search our weather history database for the weather conditions in past years. The results will help you decide how hot, cold, wet, or windy it might be!

Date:

Astronomy

Jul. 06, 2013 Rise Set
Actual Time 6:05 AM EDT 9:13 PM EDT
Civil Twilight 5:31 AM EDT 9:47 PM EDT
Nautical Twilight 4:47 AM EDT 10:31 PM EDT
Astronomical Twilight 3:55 AM EDT 11:23 PM EDT
Moon 4:51 AM EDT (7/6) 7:53 PM EDT (7/6)
Length of Visible Light 16h 16m
Length of Day
15h 08m
Waning Crescent, 2% of the Moon is Illuminated
Jul 6
Waning Crescent
Jul 8
New
Jul 15
First Quarter
Jul 22
Full
Jul 29
Last Quarter

Hourly Weather History & Observations

Time (EDT) Temp. Heat Index Dew Point Humidity Pressure Visibility Wind Dir Wind Speed Gust Speed Precip Events Conditions
12:53 AM 69.1 °F - 66.9 °F 93% 30.10 in 9.0 mi Calm Calm - N/A   Clear
1:53 AM 66.0 °F - 64.9 °F 96% 30.10 in 5.0 mi Calm Calm - N/A   Clear
2:18 AM 66.2 °F - 64.4 °F 94% 30.11 in 1.8 mi Calm Calm - N/A   Clear
2:21 AM 66.2 °F - 64.4 °F 94% 30.11 in 0.8 mi Calm Calm - N/A   Clear
2:46 AM 66.2 °F - 66.2 °F 100% 30.11 in 1.8 mi Calm Calm - N/A   Clear
2:53 AM 64.0 °F - 64.0 °F 100% 30.10 in 1.0 mi Calm Calm - N/A   Clear
3:11 AM 64.4 °F - 64.4 °F 100% 30.11 in 0.5 mi South 4.6 mph - N/A Fog Fog
3:17 AM 64.4 °F - 64.4 °F 100% 30.11 in 1.8 mi Calm Calm - N/A   Clear
3:19 AM 64.4 °F - 64.4 °F 100% 30.11 in 3.0 mi Calm Calm - N/A   Clear
3:53 AM 66.9 °F - 66.0 °F 97% 30.09 in 4.0 mi South 3.5 mph - N/A   Clear
4:48 AM 66.2 °F - 66.2 °F 100% 30.10 in 1.8 mi Calm Calm - N/A   Clear
4:53 AM 66.9 °F - 66.0 °F 97% 30.09 in 1.0 mi Calm Calm - N/A   Clear
5:27 AM 66.2 °F - 64.4 °F 94% 30.11 in 2.0 mi Calm Calm - N/A   Clear
5:41 AM 66.2 °F - 66.2 °F 100% 30.11 in 3.0 mi Calm Calm - N/A   Clear
5:53 AM 66.0 °F - 64.9 °F 96% 30.09 in 4.0 mi Calm Calm - N/A   Clear
6:04 AM 64.4 °F - 64.4 °F 100% 30.11 in 1.8 mi Calm Calm - N/A   Clear
6:08 AM 64.4 °F - 64.4 °F 100% 30.11 in 0.8 mi Calm Calm - N/A   Clear
6:25 AM 64.4 °F - 64.4 °F 100% 30.11 in 1.8 mi Calm Calm - N/A   Clear
6:36 AM 64.4 °F - 62.6 °F 94% 30.11 in 0.8 mi Calm Calm - N/A   Clear
6:39 AM 64.4 °F - 62.6 °F 94% 30.11 in 0.2 mi Calm Calm - N/A Fog Fog
6:53 AM 64.9 °F - 64.0 °F 97% 30.10 in 0.2 mi Calm Calm - N/A Fog Fog
7:03 AM 64.4 °F - 64.4 °F 100% 30.11 in 0.2 mi Calm Calm - N/A Fog Fog
7:10 AM 66.2 °F - 64.4 °F 94% 30.11 in 1.5 mi Calm Calm - N/A   Partly Cloudy
7:13 AM 66.2 °F - 66.2 °F 100% 30.11 in 3.0 mi Calm Calm - N/A   Partly Cloudy
7:31 AM 66.2 °F - 66.2 °F 100% 30.12 in 2.0 mi Calm Calm - N/A   Clear
7:51 AM 69.8 °F - 69.8 °F 100% 30.12 in 4.0 mi Calm Calm - N/A   Clear
7:53 AM 69.1 °F - 69.1 °F 100% 30.11 in 4.0 mi Calm Calm - N/A   Clear
8:53 AM 73.9 °F - 68.0 °F 82% 30.12 in 9.0 mi Calm Calm - N/A   Partly Cloudy
9:53 AM 77.0 °F - 69.1 °F 76% 30.11 in 10.0 mi Calm Calm - N/A   Overcast
10:53 AM 79.0 °F - 68.0 °F 69% 30.10 in 10.0 mi Calm Calm - N/A   Mostly Cloudy
11:08 AM 78.8 °F - 69.8 °F 74% 30.11 in 10.0 mi Variable 4.6 mph - N/A   Mostly Cloudy
11:16 AM 80.6 °F 83.2 °F 68.0 °F 65% 30.11 in 10.0 mi SSW 5.8 mph - N/A   Scattered Clouds
11:53 AM 81.0 °F 84.1 °F 69.1 °F 67% 30.10 in 10.0 mi Variable 3.5 mph - N/A   Mostly Cloudy
12:53 PM 82.0 °F 85.5 °F 69.1 °F 65% 30.08 in 10.0 mi South 8.1 mph - N/A   Mostly Cloudy
1:53 PM 80.1 °F 82.9 °F 69.1 °F 69% 30.07 in 10.0 mi South 6.9 mph - N/A   Mostly Cloudy
2:53 PM 82.0 °F 85.5 °F 69.1 °F 65% 30.05 in 10.0 mi South 6.9 mph - N/A   Partly Cloudy
3:53 PM 80.1 °F 83.2 °F 70.0 °F 71% 30.04 in 10.0 mi SE 8.1 mph - N/A   Overcast
4:45 PM 73.4 °F - 71.6 °F 94% 30.05 in 1.8 mi South 10.4 mph 17.3 mph 0.06 in Rain Heavy Rain
4:53 PM 73.0 °F - 71.1 °F 93% 30.04 in 2.0 mi South 6.9 mph - 0.11 in Rain Rain
5:00 PM 73.4 °F - 71.6 °F 94% 30.05 in 1.8 mi SSW 5.8 mph - 0.03 in Rain Rain
5:09 PM 73.4 °F - 71.6 °F 94% 30.06 in 3.0 mi SSW 4.6 mph - 0.04 in Rain Light Rain
5:53 PM 75.0 °F - 71.1 °F 87% 30.02 in 9.0 mi Calm Calm - 0.07 in Rain Light Rain
6:53 PM 73.9 °F - 70.0 °F 87% 30.01 in 5.0 mi South 5.8 mph - 0.01 in Rain Light Rain
7:53 PM 73.0 °F - 70.0 °F 90% 30.00 in 10.0 mi ESE 5.8 mph - 0.00 in   Mostly Cloudy
8:14 PM 73.4 °F - 69.8 °F 88% 30.01 in 10.0 mi SE 4.6 mph - N/A   Scattered Clouds
8:53 PM 72.0 °F - 69.1 °F 91% 30.01 in 10.0 mi Calm Calm - N/A   Mostly Cloudy
9:53 PM 71.1 °F - 69.1 °F 93% 30.01 in 5.0 mi Calm Calm - 0.01 in   Overcast
10:53 PM 71.1 °F - 70.0 °F 96% 30.03 in 8.0 mi SW 3.5 mph - N/A   Overcast
11:18 PM 71.6 °F - 69.8 °F 94% 30.04 in 8.0 mi Calm Calm - N/A   Overcast
11:53 PM 71.1 °F - 70.0 °F 96% 30.04 in 7.0 mi SW 4.6 mph - N/A   Overcast